Simultaneous Nadir Overpasses (SNOs) Predictions

Prediction of SNOs between NOAA-20 and METOP-C Satellite Orbit:

Table of predicted SNOs for the next 14.0 days since TLE Epoch: 1/27/2019
Index Date (NOAA-20) Time (NOAA-20) Lat,Lon (NOAA-20) SZA (NOAA-20 ) Date (METOP-C) Time (METOP-C) Lat,Lon (METOP-C) SZA (METOP-C ) Distance(km) Time Diff (sec)
1 02/10/2019 07:56:07 73.33, 51.51 88.05 02/10/2019 07:57:15 73.25, 53.67 87.83 69.36 68
2 02/10/2019 08:46:50 -73.26,-141.03 92.04 02/10/2019 08:47:59 -73.19,-139.15 92.23 60.94 69
3 02/10/2019 09:37:31 73.03, 26.80 87.70 02/10/2019 09:38:42 72.98, 27.74 87.58 31.12 71
4 02/10/2019 10:28:14 -72.97,-165.75 92.39 02/10/2019 10:29:26 -72.92,-165.07 92.49 22.90 72
5 02/10/2019 11:18:56 72.78, 1.95 87.40 02/10/2019 11:20:08 72.76, 1.93 87.36 2.57 72
6 02/10/2019 12:09:40 -72.77, 169.30 92.63 02/10/2019 12:10:51 -72.75, 169.24 92.66 2.81 71
7 02/10/2019 13:00:26 72.78, -23.43 87.38 02/10/2019 13:01:29 72.79, -23.34 87.37 3.06 63
8 02/10/2019 13:51:10 -72.77, 143.92 92.65 02/10/2019 13:52:12 -72.78, 143.97 92.66 2.08 62




NCC Satellite Simultaneous Nadir Overpasses (SNOs) Prediction Service
